210P/Christensen (2020)

Japanese version
Home page
Updated on November 4, 2020

---------------------------------------------------------------------

* Profile

* Pictures

* Orbital Elements

Epoch 2020 Apr. 21.0 TT = JDT 2458960.5
T 2020 Apr. 7.91011 TT                                  MPC
q   0.5279882            (2000.0)            P               Q
n   0.17494521     Peri.  345.91141     +0.17411332     -0.96855038
a   3.1661732      Node    93.83539     +0.91984127     +0.09553088
e   0.8332409      Incl.   10.26191     +0.35153463     +0.22974773
P   5.63
From 446 observations 2003 May 26-2014 July 2, mean residual 0".8.
     Nongravitational parameters A1 = -0.18, A2 = +0.0054.

* Finding Charts

* Magnitudes Graph

        m1 = 14.0 + 5 log d + 15.0 log r  [ ,0]  (             - 2020 Apr.  7)
        m1 = 13.5 + 5 log d + 13.0 log r  [0, ]  (2020 Apr.  7 -             )

---------------------------------------------------------------------

The orbital elements are published on M.P.E.C. 2014-N57.
The charts are made with StellaNavigator Ver.8 (AstroArts).
The magnitudes graphs are made with Comet for Windows.

---------------------------------------------------------------------

Copyright(C) Seiichi Yoshida (comet@aerith.net). All rights reserved.